STARLINK-5219, 54094

Orbit data source: Space-Track

STARLINK-5219, 54094 is a payload satellite owned by SpaceX/Seattle (US) in LEO that was launched on Thu, 20 Oct 2022 UTC via an FALCON 9 launch vehicle from the Air Force Eastern Test Range (AFETR). Payload-class satellites include a variety of spacecraft equipped with specific instruments for various scientific and technological missions. These include communications satellites like Starlink; space stations such as the ISS; scientific satellites like the Hubble; Earth observation satellites from companies like Planet Labs, Umbra, and HawkEye 360; GPS; miniature CubeSats for education and research; and military/defense satellites.

Loading next visibility...
Identifier
54094, 2022-136AV
Orbit
LEO
Country
Flag of USUS
Related business
Manufacturer
SpaceX/Seattle
Mission
Operational Commercial Communications
Bus & Motor
STARLINK, Unknown motor
Mass
305 kg wet, ~290 kg dry
Launch date (UTC)
2022-10-20 (3 years ago)
Launch vehicle
FALCON 9
Launch site
Air Force Eastern Test Range (AFETR)
Object type
Payload
Rocket body
Debris
Shape & HBR
Box + 1 Pan, 10.1 m
Radar Cross Section
13.562 m², Large (>1 m²)

Expand to show TLE details & history
Last TLE update: 1 day ago

TLE from 1 day ago
0 STARLINK-5219
1 54094U 22136AV  25303.04555126  .00000642  00000-0  58459-4 0  9994
2 54094  53.2165 200.4361 0001314  94.6373 265.4769 15.08827543167267
Epoch: 2025-10-30T01:05Z
TLE epoch observation values (Epoch: 2025-10-30T01:05:35.628Z)
Latitude
-0.00006°
Longitude
145.42763°
Altitude
540.751 km
Speed
7.593 km/s
True Right ascension
13h 21m 44s
True Declination
0° 00' 00"
Sunlit
Object was in daylight at epoch
Visualization orbit readout
Latitude
Unknown
Longitude
Unknown
Altitude
Unknown
Speed
Unknown
Apparent Right ascension
Unknown
Apparent Declination
Unknown
Sunlit
N/A
Visualization observer readout
Local Sidereal Time
20:14:37
Azimuth
Unknown
Elevation
Unknown
Doppler factor
Unknown
Orbital elements
Apogee altitude
540.936 km
Perigee altitude
539.118 km
Semi-major axis
6,918.164 km
Eccentricity
0.00013
Inclination
53.2165°
RAAN
200.4361°
Arg. of periapsis
94.6373°
True anomaly
265.46189°
Mean anomaly
265.4769°
Eccentric anomaly
265.46939°
Mean motion
3.77187 °/min
Orbital period
95.44 mins
BSTAR
0.000058459
Loading maneuver chart data...
Computing Atmospheric mass density...
Loading historical data...
Loading historical data...
Loading historical data...
Loading historical data...
Loading historical data...
Loading historical data...
Loading historical data...

Documentation

Showing up to 5 results
|